Wind_Gust
14 14 14 15 14 15 14 14 14 12 14 14 12 11 12 12 12 12 14 13 12 21 29 25 28 15 15 15 13 12 11 12 14 15 13 11 11 14 17 16 15 15 16 17 16 17 17 17 16 17 17 17 17 17 18 19 18 17 17 17 18 19 20 20 20 20 20 21 21 21 21 21 22 23 23 23 23 23 24 25 25 26 26 26 26
15 13 16 15 15 15 15 14 14 12 15 14 14 11 13 13 11 14 11 12 16 24 26 25 25 22 13 15 14 12 11 11 15 15 14 13 11 13 16 14 13 13 14 15 16 16 17 16 16 16 17 17 17 17 18 18 18 17 16 17 17 17 19 19 20 20 20 20 20 21 21 21 21 22 22 23 23 23 24 25 25 26 26 26 26
15 14 13 15 15 15 15 14 16 13 14 15 13 12 13 13 13 14 13 13 20 21 24 25 26 28 15 14 13 12 11 11 15 14 14 14 12 10 15 16 16 15 14 13 15 15 15 16 16 16 16 16 16 16 16 17 16 16 16 15 15 16 18 18 18 19 19 19 19 20 20 21 20 21 22 23 23 23 24 25 26 26 26 26 26
15 14 14 15 15 15 14 14 16 13 15 13 14 12 14 14 12 13 9 13 20 20 22 23 24 24 25 14 12 12 11 13 16 16 16 15 13 12 9 12 14 14 13 13 14 14 14 15 15 15 15 15 15 15 15 15 15 14 14 14 14 15 16 17 18 18 18 19 19 19 19 20 20 20 21 22 23 23 24 25 26 26 26 26 27
15 16 14 15 15 15 13 15 17 13 14 14 14 13 12 9 13 8 10 19 19 19 18 19 22 25 23 23 17 13 11 13 15 17 17 16 14 13 12 11 11 13 14 14 13 13 13 13 14 14 14 14 13 13 13 14 13 13 13 13 13 14 15 15 16 17 17 18 18 18 18 19 19 20 20 22 23 23 24 25 25 26 25 26 26
15 13 13 14 14 15 15 15 16 13 15 15 13 11 13 11 8 10 14 20 18 17 17 16 18 19 19 16 10 13 13 14 15 16 16 16 15 14 12 12 11 9 11 15 14 12 11 11 12 12 13 12 12 11 12 12 13 13 12 12 12 12 13 14 15 15 16 17 17 17 18 18 19 19 20 21 22 22 23 24 24 25 25 25 26
14 15 13 13 14 14 15 16 15 13 15 14 13 12 11 11 10 11 15 17 16 14 16 15 15 14 12 11 12 12 12 17 15 14 15 16 16 14 14 13 12 12 10 8 11 13 12 11 11 11 12 12 12 12 11 13 13 12 12 11 11 11 11 12 14 14 15 15 16 17 17 18 18 19 20 20 21 22 23 24 24 25 25 25 26
15 13 14 13 14 14 17 14 14 14 14 11 11 12 10 9 9 15 18 15 15 12 11 15 16 15 12 10 10 12 15 15 15 15 15 15 13 14 15 14 14 14 13 9 7 9 13 12 11 10 11 11 11 12 11 11 11 12 11 9 10 11 11 11 12 14 13 14 14 15 17 17 18 19 19 20 21 22 23 23 24 24 25 25 25
15 13 13 13 13 14 14 14 12 14 12 12 13 11 11 11 9 13 18 17 15 14 13 15 15 13 13 11 9 13 14 14 13 12 13 13 12 12 12 13 14 14 13 12 8 8 10 13 12 12 11 10 10 10 9 9 10 10 10 10 11 10 10 11 11 12 12 12 13 15 16 17 17 18 18 19 20 21 22 22 23 24 24 24 25
15 13 12 12 13 12 12 12 12 13 13 13 13 10 11 13 12 9 16 18 15 16 14 14 14 12 11 8 8 11 12 12 11 13 14 12 11 12 13 14 14 14 15 13 10 9 7 10 13 13 13 11 9 9 8 8 8 9 8 8 9 10 11 11 11 11 11 11 13 14 15 16 17 17 18 19 20 21 21 22 23 23 23 24 24
15 14 13 12 11 12 11 11 12 13 12 11 11 10 11 12 14 9 9 16 19 15 16 15 14 13 11 9 7 8 10 13 10 13 12 13 14 12 14 14 13 14 14 14 12 11 10 8 8 5 9 14 12 11 10 9 9 9 9 9 8 8 8 11 11 10 9 11 13 14 15 15 16 17 18 19 19 20 21 22 23 23 23 24 24
15 14 13 12 11 12 13 12 10 12 13 11 10 12 12 11 11 15 14 12 14 17 18 18 15 13 9 9 8 7 6 7 8 13 12 12 13 12 13 10 13 14 14 14 13 13 13 12 11 9 7 12 14 12 11 11 9 8 8 8 9 7 7 9 10 9 9 11 12 13 14 14 15 17 18 18 19 20 20 21 23 23 23 23 24
15 14 13 13 12 12 14 11 11 13 13 12 9 11 12 13 12 15 18 16 12 14 15 19 19 12 10 8 8 6 6 6 5 11 13 13 12 13 11 13 13 13 12 13 12 12 13 13 11 10 9 9 11 12 13 11 9 9 9 8 8 9 8 9 9 9 9 10 12 13 13 14 15 16 17 18 18 19 20 21 22 22 23 23 24
15 14 13 12 13 15 15 13 12 12 13 9 11 11 13 13 14 12 10 21 16 15 17 21 8 16 16 8 5 7 5 5 5 4 8 11 12 13 13 14 14 12 11 13 12 13 14 14 11 15 10 10 9 7 10 9 8 10 10 10 9 9 10 10 11 10 10 10 12 13 13 14 15 16 17 17 18 18 19 20 21 22 23 23 24
15 15 14 12 13 16 16 14 12 13 12 11 12 12 14 14 14 19 11 7 13 12 14 11 17 13 10 12 9 8 6 6 5 3 5 6 10 12 14 14 15 12 13 12 14 14 12 13 15 16 13 11 10 11 10 9 9 12 11 11 10 9 11 10 11 12 11 11 11 12 12 13 13 14 16 16 17 18 18 19 21 22 22 23 23
15 16 14 12 15 17 15 14 13 13 14 14 13 14 12 13 13 17 19 16 13 12 10 12 21 23 16 12 13 10 6 11 7 6 5 6 10 11 11 14 13 10 10 13 13 12 11 16 15 13 12 12 13 12 9 9 14 14 14 11 10 10 11 12 11 12 11 11 11 12 11 12 13 13 14 15 16 17 17 18 20 21 22 23 24
16 17 15 14 15 16 17 15 13 12 16 15 14 15 14 14 16 17 19 21 15 14 11 13 17 17 20 15 9 10 13 11 12 8 5 4 4 8 11 11 12 12 13 13 10 10 11 13 13 13 13 13 15 15 14 11 10 9 11 12 11 11 11 12 12 11 12 12 11 12 11 11 12 12 13 14 15 16 17 18 20 21 22 23 24
16 17 14 13 16 16 16 16 14 15 19 16 13 12 13 14 16 18 15 14 22 15 16 8 16 17 13 14 16 17 16 14 15 19 5 3 6 6 9 10 11 12 11 12 10 9 9 13 12 14 14 13 13 15 16 11 10 11 9 10 13 12 11 11 12 12 12 12 12 11 11 11 12 12 13 14 15 15 16 18 19 20 22 23 24
17 16 15 14 15 16 15 16 15 18 20 21 16 16 15 15 12 14 16 14 15 19 18 17 9 12 13 6 6 5 14 22 17 13 9 8 6 8 8 8 7 8 10 10 9 10 9 11 12 13 14 13 15 16 14 14 14 13 14 14 14 12 11 10 11 12 12 12 12 12 12 12 12 12 13 14 14 15 16 17 19 20 21 23 24
19 16 16 17 16 16 15 15 16 20 20 21 22 16 13 11 13 14 13 16 17 19 17 16 22 19 14 11 7 8 15 8 12 19 15 15 11 6 5 9 9 9 11 10 7 10 12 10 12 12 13 13 14 15 13 13 12 11 10 14 15 14 12 11 11 10 11 12 12 12 12 12 12 12 13 13 13 14 15 17 18 20 21 23 24
18 17 17 18 17 17 16 15 16 18 18 18 18 20 19 16 15 15 16 13 15 13 18 18 14 17 16 12 8 9 11 12 13 10 11 10 7 13 11 7 7 11 12 10 8 10 13 14 13 13 12 13 14 15 15 14 13 11 9 14 16 15 14 12 10 8 7 10 11 12 12 13 13 13 14 13 13 14 15 17 19 20 21 22 23
17 17 18 19 18 17 16 16 16 17 17 17 18 20 21 20 18 17 15 15 11 14 18 17 16 12 17 14 13 10 8 10 9 12 7 11 14 18 14 14 15 15 11 12 8 9 12 12 11 11 11 12 12 15 15 15 14 11 11 15 17 16 15 14 11 8 7 6 9 11 12 13 13 13 13 13 13 14 16 17 19 20 21 22 22
18 17 18 19 18 18 17 16 15 16 17 17 17 19 21 21 22 17 17 17 15 14 11 12 14 12 13 13 17 18 18 17 14 15 8 8 8 11 12 15 17 10 14 13 11 9 12 12 12 13 12 11 11 13 15 15 13 13 15 16 16 17 16 14 12 10 9 7 7 10 12 12 13 14 13 13 14 15 16 18 19 20 20 21 22
19 18 19 19 19 19 17 16 17 16 17 16 15 16 17 18 20 21 18 16 12 14 13 13 14 13 13 13 14 12 11 11 13 15 13 10 14 14 16 14 11 14 13 10 10 9 13 13 12 12 15 13 11 13 14 15 14 19 14 15 14 17 17 15 13 11 9 8 7 9 12 13 13 13 13 13 14 15 17 18 19 20 19 20 21
22 22 20 21 21 20 20 20 18 17 16 16 16 17 18 17 19 21 20 16 17 17 17 16 18 18 18 13 13 12 13 10 12 15 12 9 13 14 15 15 17 14 16 13 17 8 12 14 13 12 15 14 11 14 15 15 13 16 14 12 15 14 16 16 14 13 11 9 7 7 9 11 12 13 13 13 13 15 16 18 16 15 16 17 20
22 23 22 21 20 20 19 18 17 16 16 16 16 16 18 18 18 20 18 17 15 15 17 14 14 15 13 14 13 14 13 12 12 13 13 11 11 14 15 15 12 12 14 14 9 12 10 13 13 12 12 12 13 14 14 14 13 16 16 12 14 14 14 14 15 14 13 11 10 9 8 9 10 12 12 12 13 14 14 14 15 16 15 17 19
24 21 18 20 19 19 19 19 18 18 16 16 17 16 16 15 16 17 17 15 16 16 15 15 17 15 13 15 15 12 13 12 12 13 13 14 13 12 16 16 13 10 15 11 12 13 10 12 15 12 14 12 14 13 15 13 13 17 15 14 11 14 14 13 13 15 14 13 11 10 9 8 8 9 10 10 11 12 13 16 16 15 15 17 19
19 20 19 20 20 20 20 20 19 18 18 17 17 17 16 17 16 16 17 15 17 17 16 15 17 16 16 12 12 14 12 12 13 14 13 11 11 10 15 17 17 11 13 12 13 16 12 14 10 13 14 13 14 15 14 15 14 18 14 12 12 11 14 13 12 14 14 14 14 13 11 8 8 8 9 10 12 13 14 16 16 15 15 17 19
20 19 20 19 21 21 21 20 20 19 18 18 18 17 18 18 17 17 18 16 17 19 17 16 15 15 13 14 15 13 12 12 10 12 11 9 12 12 14 17 15 17 16 14 16 20 14 17 15 16 13 14 14 14 16 13 14 17 13 12 12 12 14 16 14 13 14 12 12 13 12 11 10 9 10 11 12 13 14 14 14 14 15 17 18
21 19 20 21 20 20 21 21 20 19 20 19 18 19 18 18 18 18 18 16 17 15 16 17 15 14 15 15 14 12 11 11 14 12 11 11 11 12 13 12 14 17 16 17 20 18 15 11 13 15 12 15 15 13 13 13 15 18 14 13 12 12 16 16 15 14 13 12 12 11 11 11 12 11 11 11 12 12 13 13 13 14 14 15 16
21 21 22 22 22 21 21 21 21 21 20 20 19 19 18 18 18 17 16 17 18 17 16 16 16 17 18 20 16 14 13 13 13 12 11 11 14 12 11 11 12 13 16 13 13 15 14 16 15 12 17 13 15 13 11 12 16 18 14 12 12 14 17 15 16 16 14 13 12 11 12 11 11 12 10 11 11 11 12 11 12 12 13 13 13
22 21 21 22 22 23 22 22 22 22 21 20 20 19 19 19 18 17 17 18 18 18 16 15 16 17 20 21 18 16 13 12 12 14 14 11 11 11 11 12 12 12 14 14 14 14 12 18 14 13 17 16 14 15 12 13 16 17 12 13 14 15 14 13 16 18 16 13 12 12 12 12 11 12 11 10 10 10 9 9 9 10 10 10 11
23 23 24 24 24 24 23 23 23 23 22 21 19 19 20 19 18 17 16 18 19 17 16 16 15 16 18 18 17 15 13 13 14 12 13 12 11 11 10 11 12 11 13 14 14 12 6 5 11 14 13 16 13 14 14 13 13 12 8 10 13 12 13 13 14 17 15 14 13 13 13 12 11 11 11 12 9 8 7 7 8 8 10 9 9
25 26 25 24 23 24 24 23 23 23 22 22 20 20 21 20 19 18 18 19 18 17 16 17 17 17 15 16 15 14 14 16 13 13 13 12 12 11 11 12 13 13 13 17 13 13 8 4 8 11 14 13 16 12 17 16 12 10 11 10 15 14 14 14 13 12 15 14 14 14 13 13 12 11 12 10 8 6 7 9 10 8 8 7 8
25 27 27 26 25 25 24 24 24 23 24 23 22 22 22 22 22 19 19 20 20 19 19 19 19 16 15 16 16 14 12 14 13 13 11 12 12 13 13 12 13 13 14 13 12 9 11 8 8 14 13 13 14 16 13 16 16 17 15 12 12 13 10 9 12 10 14 16 15 15 15 15 13 14 14 12 9 8 9 11 11 9 8 7 6
27 26 26 26 25 26 26 25 25 24 24 23 23 23 24 23 23 22 20 20 20 20 21 19 18 19 19 17 16 15 13 15 14 13 12 11 14 14 12 11 12 13 12 12 10 11 11 14 7 16 14 15 10 8 13 14 16 14 15 11 9 12 9 12 12 12 15 18 16 16 17 16 15 16 16 13 10 9 10 12 12 11 9 8 7
26 25 25 26 27 27 29 28 27 26 25 25 24 23 22 22 23 22 21 20 20 20 20 19 16 19 18 19 16 14 13 15 12 12 12 12 14 14 14 12 12 11 10 11 12 13 14 13 13 8 10 10 9 9 12 15 10 12 8 10 11 13 12 11 11 14 13 20 17 18 17 17 17 17 17 13 11 10 11 12 13 12 11 9 8
26 26 27 27 28 29 27 27 27 26 25 25 25 25 24 22 22 21 21 20 20 19 19 18 18 18 18 18 15 15 15 17 15 13 12 13 12 12 11 11 13 8 10 8 12 14 15 14 17 11 7 13 7 9 11 14 15 11 8 8 6 6 8 7 9 12 11 14 11 13 12 14 16 18 18 13 12 12 12 14 14 14 12 10 10
27 27 28 28 26 27 27 26 27 26 26 25 26 25 24 23 23 22 21 20 18 19 18 18 18 18 18 17 16 15 16 16 15 15 14 11 13 12 12 12 11 11 12 11 12 14 14 13 8 12 17 8 10 11 7 12 15 15 16 9 9 9 8 10 11 11 12 11 12 15 15 15 13 13 15 16 14 15 15 15 15 16 14 11 11
28 28 29 29 27 26 27 27 26 25 25 25 25 25 24 24 23 22 22 21 20 18 16 17 17 18 18 17 17 16 17 15 15 14 14 16 11 11 10 10 11 13 13 12 13 14 14 13 14 11 9 13 6 4 8 9 8 5 10 12 15 9 9 9 11 13 12 16 14 16 13 13 12 15 17 14 14 17 16 16 17 18 16 13 12
28 28 26 25 25 25 25 25 25 24 26 28 27 27 26 24 23 23 23 22 21 20 17 16 16 17 16 16 15 15 16 14 16 14 14 13 15 14 10 10 11 14 12 12 14 14 13 14 11 8 12 10 11 12 13 13 17 21 15 7 11 9 8 9 10 9 10 13 12 12 11 12 12 12 13 13 15 15 16 17 14 20 17 14 14
27 27 26 25 26 27 27 26 24 25 26 25 23 27 23 26 24 23 22 22 21 20 19 16 14 15 16 14 14 16 17 18 17 18 18 17 16 15 15 13 14 14 14 14 15 15 15 15 15 15 13 14 15 14 15 11 10 8 9 8 10 7 5 6 7 10 10 12 10 11 13 9 10 12 13 14 9 16 14 14 17 17 14 17 16
28 27 27 27 26 26 27 27 27 26 25 25 25 26 26 26 24 22 23 22 20 20 19 19 18 16 12 12 11 15 17 16 19 20 19 18 16 15 14 15 14 19 16 16 15 14 18 17 14 14 17 17 15 13 13 13 11 15 14 12 11 8 8 7 9 8 5 12 9 8 11 6 9 11 11 11 11 15 15 17 20 20 18 18 16
28 26 28 29 27 25 26 26 27 26 24 19 26 27 26 26 22 24 21 21 21 20 19 20 18 15 14 13 11 12 14 16 14 15 17 16 16 15 14 15 17 17 19 21 18 14 14 15 14 17 16 17 17 13 10 10 12 9 9 12 11 11 10 9 9 9 7 9 9 6 11 8 7 10 12 14 12 16 21 19 21 19 20 17 17
27 28 29 27 27 25 25 26 27 25 22 20 27 28 27 26 25 22 20 21 21 19 19 19 17 16 14 14 12 11 14 16 15 12 12 11 10 14 14 15 16 18 17 19 20 24 18 17 19 16 19 16 15 15 15 17 14 15 9 11 10 10 10 10 11 6 6 8 9 7 9 11 4 5 10 13 13 16 19 17 21 21 21 18 18
28 28 25 27 26 25 26 25 25 23 23 21 28 29 27 27 25 22 19 21 20 19 19 19 17 17 17 17 16 14 12 13 13 14 12 13 12 11 9 9 11 12 13 14 14 14 18 21 20 21 17 13 21 18 14 15 18 17 16 14 10 10 10 13 9 10 5 8 12 9 6 12 9 5 10 11 13 9 12 15 23 21 21 20 17
30 31 30 29 27 25 24 24 24 24 25 23 28 29 28 26 26 21 20 18 18 17 18 18 18 18 17 18 17 17 15 14 14 17 16 15 13 12 10 8 8 9 10 10 11 12 12 9 16 17 17 15 15 15 16 16 19 20 22 20 20 14 9 2 5 6 9 7 7 7 9 12 6 3 8 9 9 10 12 11 16 20 22 18 17
29 27 26 27 28 28 27 24 24 25 22 27 28 29 28 25 26 25 20 20 19 18 17 16 17 18 18 18 17 17 17 16 15 19 18 17 15 14 12 8 7 7 6 6 6 8 11 14 14 14 15 18 13 16 17 18 13 12 13 12 11 9 11 6 11 7 10 10 10 9 8 9 10 4 7 7 6 8 10 8 12 20 21 16 17
28 29 31 32 33 30 31 27 26 26 22 25 29 29 28 27 22 26 20 19 19 18 18 16 17 17 18 18 18 18 17 17 18 20 19 18 15 16 15 12 9 9 9 7 8 12 14 14 13 13 14 16 15 16 19 19 18 16 16 14 11 12 12 10 9 9 15 14 12 14 11 9 10 8 7 6 5 9 9 9 13 13 17 14 16
29 31 29 29 28 29 29 30 27 25 23 23 28 28 28 29 26 28 22 20 19 19 16 15 15 16 18 21 18 19 20 19 20 21 21 20 17 17 16 15 13 11 9 10 9 8 10 12 12 12 14 16 17 17 20 20 20 18 22 21 16 14 14 12 14 11 10 11 12 14 12 13 6 4 5 8 8 7 6 5 7 12 12 12 17
28 26 23 26 28 29 30 31 24 29 25 22 24 28 29 29 30 27 23 21 21 18 17 16 12 15 17 20 24 21 21 19 23 22 23 20 18 18 18 17 16 16 16 14 14 12 8 9 6 11 7 10 14 14 15 21 23 17 19 18 16 17 16 12 10 7 9 10 8 11 13 7 6 4 5 7 8 10 4 6 8 10 8 9 11
Wind_Speed
6 7 7 7 6 6 6 6 5 6 5 5 4 5 5 4 3 4 4 5 5 6 6 6 6 6 7 7 6 6 6 5 5 5 5 5 5 9 13 12 11 12 12 11 9 10 12 11 11 10 10 13 12 12 12 12 12 13 12 12 13 14 14 14 14 15 14 14 14 13 14 15 15 16 16 16 16 16 16 17 17 17 18 18 18
7 6 8 7 7 6 6 6 6 5 5 5 5 5 6 4 3 4 4 5 5 6 6 7 6 6 7 7 6 6 6 6 5 5 5 5 5 6 12 11 11 10 10 11 11 9 10 11 12 10 10 12 12 12 12 11 11 12 11 11 12 13 13 13 13 13 13 13 13 12 13 14 15 15 16 16 16 16 16 16 17 18 18 18 19
7 7 7 8 7 7 7 6 6 5 5 6 5 6 5 5 5 5 5 5 6 7 7 7 7 7 7 7 6 6 6 6 5 5 5 5 4 3 6 10 9 8 8 10 10 9 9 10 11 10 9 11 11 11 11 11 10 10 10 11 12 13 13 13 12 12 13 13 13 12 13 14 14 15 15 15 15 15 15 16 17 17 17 18 18
8 7 8 7 7 7 7 6 6 5 6 5 6 6 6 6 4 4 4 5 6 6 6 7 7 7 7 7 6 6 6 6 6 5 4 3 4 4 6 6 10 9 8 8 9 9 8 9 10 10 8 9 10 10 10 10 10 9 9 10 11 11 11 12 11 11 12 12 12 12 13 13 13 14 14 14 14 14 15 16 16 16 17 17 18
7 9 8 7 7 7 6 7 6 6 6 6 6 5 5 4 3 4 4 5 6 6 5 5 7 7 7 7 6 7 6 6 6 5 4 4 5 5 5 4 4 8 8 7 8 8 8 7 8 9 8 7 7 9 8 9 8 8 8 9 9 10 10 11 10 10 11 11 11 12 12 12 13 13 13 13 14 14 14 15 15 16 16 17 17
8 8 7 7 7 7 7 7 6 6 6 6 6 5 6 5 3 6 6 7 7 7 7 6 5 6 6 6 6 7 7 6 6 5 5 4 4 4 5 5 5 4 3 7 5 7 9 8 8 8 7 6 6 8 8 9 8 8 8 8 8 8 9 9 10 9 9 10 10 11 11 11 12 12 12 13 13 13 14 14 15 16 16 17 17
8 8 8 7 7 7 7 7 7 6 6 6 6 5 6 5 4 5 6 6 7 6 7 7 7 7 7 6 6 6 6 6 5 5 5 4 4 4 4 5 5 4 3 3 5 6 6 7 8 7 7 6 5 5 8 9 8 7 6 6 7 6 8 9 9 8 8 9 10 11 11 11 11 11 12 12 12 13 13 14 14 15 15 17 17
9 8 8 7 8 7 8 7 7 6 6 6 6 6 6 3 4 7 7 6 7 6 5 6 5 6 5 5 6 6 6 6 6 5 5 5 4 4 4 5 4 5 4 3 2 3 6 5 4 7 8 7 5 4 6 7 7 6 5 6 6 5 5 8 7 7 7 9 10 10 10 10 10 11 11 11 12 13 13 13 14 14 15 16 17
9 8 8 8 7 8 8 8 6 7 7 6 6 6 5 5 4 7 9 8 8 8 5 5 5 4 5 5 6 7 7 7 7 6 5 5 5 4 4 4 4 5 4 3 3 3 6 7 5 5 7 7 6 5 3 5 7 5 6 6 5 5 6 7 6 5 5 8 9 9 10 9 10 10 11 11 12 12 13 13 14 14 15 16 16
9 8 7 7 7 7 7 7 7 7 7 6 7 5 5 7 6 4 8 9 8 8 7 5 5 5 5 5 5 6 6 6 6 6 6 6 5 5 5 5 4 4 5 4 4 4 3 5 7 5 6 7 7 6 4 4 4 5 4 3 3 2 5 6 5 3 3 8 8 8 9 9 9 9 10 10 11 11 12 13 14 14 15 15 16
9 9 7 7 6 7 7 6 7 7 6 7 6 6 6 7 8 5 4 8 10 9 9 7 6 5 5 4 4 4 5 5 6 6 6 7 6 6 5 5 4 4 4 4 4 4 4 3 2 1 1 7 6 6 5 5 5 4 5 4 2 1 3 4 5 3 5 7 7 7 8 8 8 9 9 9 10 11 12 13 14 14 15 15 16
9 8 8 7 6 6 6 5 6 6 7 7 6 7 7 7 8 10 8 5 5 8 8 8 6 6 5 6 4 4 4 4 5 7 6 6 6 6 6 5 5 5 4 4 4 4 4 4 2 2 1 3 6 5 6 6 5 4 4 4 4 2 0 4 3 4 5 6 6 7 7 7 8 8 8 9 9 11 11 12 13 14 15 15 15
9 8 8 7 7 6 6 5 5 6 6 7 6 7 6 7 7 8 11 9 4 5 7 10 10 5 5 5 5 3 3 2 3 7 8 7 6 7 5 6 5 5 5 4 4 4 4 4 3 2 2 1 1 6 6 6 6 4 4 4 4 3 1 2 3 4 4 5 5 6 5 6 7 7 8 8 9 10 11 12 13 14 14 15 15
8 8 7 7 7 6 6 6 6 6 6 6 5 6 6 6 8 6 5 12 7 7 8 9 2 6 7 2 3 4 3 3 3 3 5 6 7 7 6 6 6 6 4 4 4 4 3 4 3 3 3 2 1 0 2 3 3 5 4 3 3 3 3 2 3 4 4 5 5 5 4 5 6 7 7 7 8 9 11 12 13 14 14 15 15
9 9 8 7 7 7 6 6 6 6 6 6 6 6 7 8 9 10 5 2 5 5 8 4 7 3 4 6 1 2 2 2 2 1 3 4 6 7 7 7 8 6 6 5 5 4 3 4 4 4 3 3 3 2 2 3 2 5 5 4 3 4 3 3 2 4 5 5 5 5 4 4 4 5 6 7 8 9 10 11 12 13 14 15 15
9 9 7 7 7 8 6 6 7 6 7 7 6 7 7 7 8 10 11 8 4 6 4 1 8 10 4 2 2 4 1 5 3 2 2 4 6 7 7 7 7 5 4 6 6 5 5 5 5 5 4 4 3 3 3 2 5 7 6 5 5 4 4 3 2 3 5 5 5 5 3 3 3 4 5 6 7 9 10 11 12 13 14 15 15
9 9 8 8 7 7 7 6 7 7 7 8 8 8 9 7 9 10 11 11 8 5 5 3 7 7 10 5 3 0 5 3 3 3 1 2 3 5 6 7 8 7 7 7 6 6 6 5 5 4 5 4 4 4 3 4 3 3 4 7 7 6 5 4 3 2 4 5 5 5 3 2 3 4 5 6 7 8 10 10 12 13 14 14 15
9 9 8 8 8 8 7 7 7 7 7 8 7 6 8 8 9 10 9 9 11 7 6 2 5 3 5 5 8 7 6 4 6 5 0 1 3 3 6 7 7 8 7 7 6 5 5 6 5 6 5 5 4 4 4 4 3 4 3 4 8 7 6 5 4 3 3 4 5 4 4 2 2 4 4 6 7 8 9 10 11 12 13 14 14
9 9 8 8 8 8 8 8 8 8 7 7 8 9 8 8 6 8 9 8 8 10 9 7 2 3 2 1 2 2 7 8 7 4 3 3 0 4 5 4 4 5 6 6 6 5 5 6 7 7 6 6 5 5 5 4 5 5 7 8 9 8 7 6 5 4 4 4 4 3 3 2 2 3 4 5 6 7 9 10 11 12 13 13 14
10 9 9 8 8 8 8 8 8 8 8 8 9 7 7 5 7 7 7 9 10 10 9 8 10 7 4 2 3 3 7 3 5 9 6 6 4 2 3 4 4 4 6 6 5 5 6 5 6 6 6 6 6 6 6 6 4 4 5 10 10 10 9 7 5 2 4 4 3 3 2 1 2 3 4 5 5 7 8 9 10 11 12 13 13
10 10 9 9 9 9 9 8 8 9 8 8 7 8 9 9 7 7 8 8 8 7 9 10 8 8 6 3 3 3 4 1 5 2 4 4 3 5 5 1 2 4 5 5 4 4 6 7 7 7 7 7 7 7 7 6 6 5 5 10 12 11 10 9 6 3 2 3 3 3 2 2 1 3 4 4 5 6 7 9 10 11 12 12 13
10 10 10 9 9 9 9 10 9 9 8 8 8 8 8 9 10 9 8 9 6 7 10 9 8 6 8 7 6 3 3 2 3 3 1 2 6 7 7 7 7 7 5 6 4 4 5 6 6 6 6 7 7 7 7 7 6 6 6 11 12 12 11 10 8 6 4 3 3 2 1 1 1 2 3 4 4 5 7 8 9 11 12 12 13
9 9 10 10 10 10 10 10 9 8 8 8 9 9 9 9 8 8 8 9 8 7 6 7 8 7 7 7 9 9 9 7 7 6 4 2 1 3 3 7 9 4 4 5 4 5 6 6 6 5 6 6 6 6 7 7 7 8 10 12 12 12 12 11 9 8 7 5 4 2 1 1 1 2 3 3 3 5 6 8 9 10 11 12 12
10 10 10 11 11 10 10 10 9 9 9 9 8 8 8 7 7 8 8 8 7 8 8 8 9 7 8 7 7 7 6 6 6 8 7 5 6 5 6 3 2 5 2 2 3 4 5 7 7 6 6 6 6 7 7 7 7 12 9 12 11 13 13 12 11 9 7 6 5 4 2 1 1 1 2 2 3 4 6 7 8 9 10 11 12
11 12 12 13 11 11 11 11 10 9 9 9 8 9 8 8 8 8 8 10 9 9 9 10 10 10 9 7 7 7 8 5 7 8 7 4 6 4 3 3 5 4 3 2 4 3 5 7 7 7 6 6 6 6 7 7 7 11 11 9 12 11 13 12 11 10 8 7 5 5 3 2 1 0 1 2 2 4 5 7 6 6 8 10 11
12 13 12 12 11 11 11 10 10 10 9 9 9 9 9 9 9 10 10 9 8 10 10 9 9 10 8 8 8 8 8 6 7 7 7 6 5 5 5 2 0 1 0 2 1 2 4 5 6 7 7 6 6 7 7 8 7 12 13 8 10 12 12 12 12 11 10 9 8 7 6 4 2 1 1 2 2 3 5 5 6 6 7 9 10
12 11 11 12 12 11 12 11 11 11 10 9 9 9 9 8 9 10 9 8 9 9 9 9 9 9 8 8 8 7 7 7 7 7 7 8 7 5 6 4 1 0 2 1 2 6 4 3 6 6 7 6 7 7 8 7 8 13 12 8 7 12 12 11 11 12 11 10 10 9 7 6 5 3 3 2 3 4 4 5 6 6 6 8 9
10 11 11 12 12 12 12 12 11 11 10 10 10 9 10 10 9 9 10 7 9 11 9 9 10 10 10 7 7 8 7 7 7 7 6 6 6 6 6 7 7 4 1 3 3 6 4 5 3 6 7 7 7 8 7 9 7 14 11 7 7 8 12 11 10 12 12 11 11 10 9 7 6 5 5 5 4 3 3 5 5 5 6 7 9
10 11 11 12 12 12 12 12 12 11 11 11 11 10 10 10 10 10 10 9 10 11 10 10 9 9 8 9 9 7 7 6 6 6 6 5 6 6 7 8 7 6 5 5 6 7 5 7 6 6 6 6 7 5 7 7 8 11 8 7 7 6 10 12 11 10 11 9 10 11 10 9 7 7 6 6 5 3 3 4 4 4 5 6 7
11 10 11 12 12 12 12 12 12 11 12 11 11 11 11 10 10 10 10 10 10 8 9 10 9 8 8 8 7 7 6 7 7 7 6 7 6 7 7 6 7 8 7 7 7 6 5 4 5 4 6 7 6 6 6 7 11 12 8 8 7 7 11 13 12 11 10 9 9 9 9 9 9 8 7 6 5 3 3 4 4 3 4 5 6
11 12 12 12 12 12 12 12 12 12 12 11 11 11 11 10 10 9 9 10 10 10 9 9 8 8 8 9 7 7 6 7 6 6 6 6 7 6 6 6 7 7 8 6 4 5 6 6 6 4 7 7 7 6 5 5 10 12 9 7 7 10 12 10 12 12 11 10 9 9 9 9 9 10 8 8 6 4 4 6 5 3 3 3 4
12 13 12 13 13 13 12 13 13 13 12 11 11 11 10 10 10 9 9 11 11 11 9 9 8 9 9 10 9 8 7 6 6 6 7 6 6 6 6 7 7 7 7 7 8 7 6 9 7 5 8 8 8 8 6 5 7 13 7 8 8 8 7 6 10 13 12 11 10 10 10 10 9 10 9 8 6 5 6 6 5 3 3 3 2
13 13 14 14 14 14 14 13 13 13 13 12 11 10 11 11 10 10 10 11 11 9 9 10 8 9 10 10 10 9 7 7 7 6 6 6 6 6 6 6 7 6 7 7 7 7 1 2 3 5 6 9 6 7 8 6 7 7 6 6 5 5 6 6 6 11 13 11 11 11 11 10 9 9 8 8 6 5 5 7 7 4 4 4 2
14 15 15 13 13 14 13 14 13 13 13 12 11 11 11 12 11 9 10 11 11 10 9 10 10 9 9 10 9 8 8 9 7 7 7 6 7 6 6 7 7 7 7 8 7 7 5 0 3 2 6 8 8 6 10 9 7 6 7 6 4 5 6 6 6 7 12 11 12 12 11 11 10 9 8 7 6 4 6 9 8 7 6 5 3
14 14 14 14 13 13 13 13 12 12 13 12 11 11 12 13 12 11 10 11 12 11 11 11 11 9 9 9 10 8 6 8 8 8 7 7 7 7 8 7 8 8 8 7 6 5 6 3 3 6 6 6 7 9 7 7 8 9 9 7 6 5 4 5 6 5 9 12 12 12 13 12 10 10 9 9 8 7 8 10 10 8 7 6 5
13 13 13 13 12 12 12 12 12 12 12 12 11 12 13 13 13 13 11 11 11 12 12 11 11 11 11 10 9 9 8 9 8 7 7 7 8 8 7 7 7 8 7 7 5 6 4 6 4 7 6 8 3 4 6 5 6 7 8 6 4 4 4 5 5 5 7 12 13 13 13 13 12 11 10 9 8 7 9 10 10 9 8 7 5
13 12 11 11 12 12 12 13 12 12 12 12 12 12 11 11 12 12 11 11 11 12 12 11 11 12 11 11 10 9 8 9 7 7 7 8 8 8 8 7 7 6 5 6 6 4 6 7 5 3 4 3 2 4 6 7 3 4 2 4 5 6 5 4 4 5 5 10 12 14 14 14 12 11 10 9 8 9 9 10 11 10 9 7 6
13 12 12 11 12 13 12 12 12 12 11 12 12 12 12 11 11 11 11 11 11 11 11 11 11 11 11 11 9 9 9 10 9 8 7 9 7 7 7 7 6 5 5 4 4 4 7 8 9 4 3 6 3 3 6 6 8 5 4 4 2 2 3 3 5 5 3 3 4 7 9 10 11 11 9 7 8 9 10 10 11 12 10 9 8
13 12 12 12 11 12 13 12 12 12 12 11 11 12 12 11 11 11 10 11 10 10 10 11 10 10 10 10 9 9 10 10 9 9 8 7 7 7 7 7 6 5 6 5 5 6 6 6 4 6 8 4 4 6 4 5 6 6 8 5 5 3 3 6 6 4 2 3 5 8 8 8 7 6 6 6 8 10 11 11 12 13 11 10 9
12 14 15 15 13 11 12 12 12 11 11 11 12 12 12 11 11 11 11 11 11 10 9 9 10 10 10 10 10 10 10 9 9 8 8 9 7 7 6 6 6 6 6 5 5 6 6 6 7 6 5 7 2 2 3 4 3 2 4 6 8 5 5 5 6 7 3 3 5 6 5 5 7 8 9 7 9 11 12 12 14 14 14 11 10
12 13 13 13 11 11 11 11 12 11 11 12 11 12 12 12 11 11 11 11 11 11 9 9 9 10 9 9 9 9 10 11 13 11 11 10 8 8 6 6 6 7 5 5 7 7 6 7 5 4 7 5 6 7 7 7 9 11 7 4 5 5 4 5 5 3 3 6 5 3 4 5 6 7 6 4 5 8 10 13 11 15 14 12 11
10 9 9 11 11 12 11 11 11 11 11 10 13 18 15 12 12 10 10 10 11 10 10 9 8 9 10 8 8 13 14 14 13 14 14 14 13 10 9 8 8 7 7 7 7 7 8 8 8 8 7 8 8 8 8 6 6 3 5 5 6 3 3 3 1 4 4 4 4 4 7 3 5 7 5 6 5 5 5 6 8 9 11 14 12
9 9 9 10 11 11 12 12 12 11 11 11 16 16 17 18 13 11 11 11 10 10 10 10 10 10 7 8 7 10 11 12 12 16 15 15 14 13 12 13 11 10 8 8 8 8 9 9 7 8 9 9 8 7 8 7 5 8 8 7 6 4 4 4 4 2 1 7 4 4 6 2 5 6 6 6 5 4 5 7 12 13 13 12 11
10 7 8 10 10 10 9 10 12 12 11 13 16 17 18 18 16 12 10 10 10 10 10 11 9 8 8 7 6 6 7 9 9 10 12 14 14 13 12 13 14 14 14 12 10 7 8 8 8 9 9 9 9 7 5 6 7 5 6 7 6 7 5 5 4 4 2 5 5 3 6 2 1 5 5 6 6 5 7 10 12 12 12 13 11
3 3 8 9 9 9 10 11 12 12 11 14 16 18 19 18 18 15 10 10 11 11 11 11 9 9 8 8 7 6 7 13 10 8 7 7 9 11 12 12 13 15 14 16 17 15 10 10 11 9 10 9 8 8 8 9 7 8 5 7 5 6 6 6 6 3 2 4 5 4 4 4 1 2 3 7 6 5 6 9 11 9 10 12 10
9 6 3 3 3 7 10 11 11 10 12 12 16 18 19 19 18 16 11 11 11 11 11 11 9 9 9 9 8 7 5 6 7 8 7 7 6 4 4 5 6 9 11 12 12 13 14 12 11 12 10 7 11 10 8 8 10 9 9 8 6 5 6 7 5 6 2 4 7 4 1 3 1 3 4 6 2 3 4 5 6 6 9 9 10
12 13 14 11 9 8 8 9 9 11 11 13 15 18 19 20 19 17 11 10 10 10 10 10 10 10 10 9 10 10 8 7 8 9 9 8 7 6 5 5 5 6 6 6 7 7 7 5 10 10 10 9 9 10 9 9 11 11 12 11 12 8 4 1 2 0 0 1 4 3 4 3 1 1 3 4 5 6 3 4 4 5 7 8 9
9 10 10 10 10 8 6 6 8 12 11 14 17 18 19 19 19 14 11 11 11 10 10 9 9 9 10 10 9 9 9 10 11 15 12 9 8 7 7 4 4 3 2 1 2 5 7 8 8 8 9 11 11 10 11 10 6 5 5 6 6 5 6 4 6 1 2 2 2 4 1 2 2 2 2 3 2 4 5 3 4 7 8 9 10
9 8 10 11 12 13 14 14 14 14 12 11 16 18 20 20 15 13 12 10 10 11 10 10 10 9 10 10 10 10 10 10 12 15 15 14 9 9 8 6 4 4 3 0 4 4 3 6 9 10 12 14 13 13 15 16 12 10 8 8 7 6 7 6 4 1 5 2 3 5 3 3 2 3 2 1 1 2 2 2 2 5 5 6 9
9 11 10 9 9 11 12 13 13 13 12 11 17 18 20 20 19 15 12 11 11 10 9 9 8 9 11 16 13 11 11 11 14 16 16 14 10 10 8 8 6 5 4 1 2 3 7 8 7 8 11 13 14 15 16 17 16 14 12 11 9 8 8 7 7 6 3 2 4 5 3 5 1 1 1 2 0 2 1 2 3 4 3 2 6
11 7 6 6 6 8 10 13 17 16 12 11 19 20 22 22 20 15 12 11 11 10 9 9 7 8 9 13 18 14 13 12 17 17 17 14 10 10 10 9 9 8 8 6 6 5 4 5 3 5 3 5 7 8 10 17 19 15 11 10 9 9 9 7 6 2 0 3 4 6 5 3 4 1 2 1 0 2 1 3 4 4 3 1 2
Wind_Direction
165 165 164 176 179 180 179 184 185 191 175 189 188 203 219 209 147 134 173 163 161 146 139 136 134 132 128 131 134 130 124 116 113 111 107 106 115 124 125 128 125 123 123 121 115 110 107 112 111 107 100 94 95 96 93 90 88 84 81 78 74 70 66 67 69 68 68 66 62 57 55 52 52 49 48 47 48 47 49 48 47 44 41 38 37
171 170 170 180 184 181 182 186 190 191 182 191 201 199 213 218 129 147 184 162 162 153 143 142 142 137 134 137 140 134 128 123 119 118 119 120 125 131 133 134 134 133 129 122 117 116 118 117 114 112 110 105 99 99 97 92 87 85 81 80 79 75 69 68 70 69 66 65 63 54 54 51 51 50 48 50 49 51 51 49 46 44 41 40 38
173 174 180 181 183 182 189 186 191 191 192 199 192 203 213 216 148 161 182 165 164 156 150 145 145 141 140 145 143 133 126 120 121 123 124 126 125 136 132 121 109 105 113 121 125 126 121 121 119 119 114 113 111 104 99 96 93 89 85 79 75 76 72 69 70 69 65 60 58 54 53 52 49 50 51 51 50 52 49 49 46 43 41 40 38
172 177 183 182 182 188 189 185 195 188 194 198 196 203 212 220 131 167 180 156 146 149 152 143 148 144 149 151 146 133 129 129 130 130 124 115 112 99 99 109 111 106 101 107 121 120 123 124 126 126 126 120 111 102 96 99 97 89 83 85 81 79 76 71 68 65 65 64 58 53 50 51 50 48 52 52 49 50 49 47 45 42 40 39 37
176 178 186 187 184 187 191 194 193 186 192 201 199 202 218 228 149 161 165 141 133 137 135 137 143 152 156 155 145 134 133 133 135 132 130 127 121 117 113 113 115 122 125 123 133 136 131 126 123 125 124 125 124 110 103 103 102 94 83 81 85 85 82 73 67 63 60 60 59 58 50 51 52 49 52 52 49 48 48 46 43 41 38 37 36
178 181 183 191 187 191 194 196 195 187 192 193 199 193 215 218 181 153 162 154 151 146 140 139 146 157 160 155 141 138 139 139 142 139 136 130 128 122 120 110 116 121 135 142 131 132 139 139 132 132 132 127 117 129 119 97 101 97 93 82 76 83 84 78 67 64 59 55 52 58 53 52 52 50 52 51 49 48 46 45 42 39 37 35 34
187 176 184 188 189 196 200 200 191 184 190 194 192 198 205 207 149 148 144 148 145 145 142 149 157 166 165 153 143 137 136 140 138 137 138 139 129 125 124 124 126 128 121 121 137 126 125 135 145 141 137 133 129 118 117 117 106 103 102 97 83 75 82 85 73 64 56 58 52 50 53 52 54 50 52 48 48 48 45 43 41 38 35 34 32
189 180 179 190 186 195 204 203 190 182 195 194 189 190 203 166 170 145 139 139 136 131 132 151 158 155 150 146 142 145 142 144 148 145 147 142 140 133 133 133 130 136 130 120 117 144 132 117 123 150 147 144 140 127 123 123 120 137 129 107 100 92 83 87 79 66 53 54 56 52 53 53 55 53 50 48 46 45 43 41 39 36 33 32 29
186 183 180 189 190 190 202 200 189 188 192 193 195 198 165 159 158 162 146 143 140 137 139 147 140 134 128 126 143 153 155 160 159 156 148 148 146 142 139 146 152 143 131 136 132 137 146 145 133 126 147 149 150 145 121 121 138 102 74 75 92 99 97 82 81 70 65 52 58 54 54 54 53 54 50 47 46 42 41 39 38 35 32 29 28
183 183 181 188 183 185 186 186 185 192 190 177 197 185 165 154 147 157 146 135 138 141 141 138 127 117 103 99 115 147 156 156 157 153 154 153 159 161 161 161 155 144 150 153 159 150 152 163 162 151 146 147 153 155 148 119 117 122 123 104 79 50 94 103 86 67 68 68 60 59 57 55 53 53 50 47 44 41 39 37 35 34 31 28 26
177 181 176 187 183 177 167 171 173 176 170 167 166 167 163 159 138 125 138 144 146 148 141 131 114 100 87 75 86 120 146 150 155 160 164 165 167 167 156 171 160 159 162 168 175 161 160 177 166 145 157 156 164 162 149 134 129 134 143 144 129 110 106 96 107 54 54 70 67 66 62 59 54 51 50 47 42 38 37 35 33 33 31 28 26
174 175 177 181 183 179 173 170 173 162 157 150 160 159 161 149 131 130 120 91 109 131 128 117 92 79 79 64 57 69 101 134 154 173 168 165 170 163 173 169 162 173 175 180 180 183 170 176 171 169 217 189 167 153 144 134 131 135 143 145 146 144 29 131 114 93 71 75 72 71 67 62 57 50 47 45 39 34 34 33 31 31 29 26 23
176 168 174 180 182 174 170 181 175 165 158 163 167 161 157 146 129 132 129 125 124 138 137 126 119 68 48 57 48 32 49 58 117 155 165 170 166 168 170 164 173 178 191 180 187 193 179 170 173 169 205 295 211 172 157 153 157 165 163 155 155 154 68 72 110 105 84 86 79 73 69 66 58 52 47 44 36 30 30 31 30 29 27 23 21
176 175 173 174 180 176 177 181 176 171 168 158 156 154 143 139 129 111 141 142 147 167 157 122 82 146 137 101 13 355 3 39 65 117 148 158 165 164 170 176 180 190 177 179 199 200 187 177 170 178 213 210 246 253 179 164 176 179 174 168 155 143 138 117 125 124 110 101 87 83 74 64 58 50 47 44 38 28 28 29 29 27 24 22 19
177 175 174 181 179 172 187 179 176 171 160 158 154 156 157 159 147 139 126 86 130 175 175 164 132 100 94 93 130 99 326 2 344 78 129 150 154 165 176 180 189 185 178 181 200 202 192 181 180 184 199 203 192 178 166 150 199 185 175 164 163 160 157 142 135 135 127 118 109 98 78 74 62 54 49 47 37 29 28 28 27 24 22 20 17
178 175 178 182 177 175 182 178 178 176 164 162 167 167 161 170 150 145 142 139 157 184 224 228 141 135 127 150 180 115 148 258 228 270 149 157 159 172 175 186 188 184 171 188 202 201 193 182 187 190 194 196 177 171 169 179 194 182 176 171 167 169 158 146 147 139 136 136 129 111 94 81 78 64 56 51 40 29 29 27 26 22 20 17 15
179 179 178 182 180 172 179 182 175 179 167 166 175 178 169 177 157 150 160 155 167 164 207 183 177 166 133 111 69 261 214 204 143 268 105 125 201 179 183 177 180 183 187 208 202 194 185 186 195 184 195 194 179 174 181 199 201 168 176 174 171 161 161 160 161 142 139 142 135 127 121 96 87 79 63 56 43 31 29 27 24 21 18 15 13
182 182 182 179 181 175 177 181 180 176 176 172 169 164 169 180 175 160 165 167 156 162 169 214 204 190 175 144 163 173 172 192 145 223 286 215 194 206 198 185 180 179 191 202 199 191 186 197 192 191 193 197 185 167 188 199 187 165 171 197 176 168 161 169 172 160 152 144 141 140 132 112 92 93 71 55 43 31 27 25 22 20 16 14 13
185 183 181 182 179 175 179 187 181 177 175 166 172 178 177 183 173 166 168 157 152 166 175 175 188 277 229 170 142 134 142 137 197 85 192 279 261 209 235 218 194 185 191 201 198 174 195 193 192 191 191 194 187 179 184 199 184 172 182 192 177 165 160 168 177 175 167 160 149 142 127 118 103 91 80 60 42 28 25 24 21 18 15 13 11
182 185 182 181 179 177 180 188 180 179 175 179 178 177 167 177 182 174 158 167 171 170 171 169 175 200 190 195 72 116 159 111 151 172 165 177 235 276 285 241 227 217 202 202 201 188 179 192 194 189 188 190 190 179 186 189 181 178 190 193 176 167 161 156 146 153 177 168 156 145 135 127 112 93 87 70 47 27 23 23 21 17 14 11 9
185 183 185 182 180 179 179 188 182 180 181 177 175 171 175 172 177 171 172 177 180 170 162 182 186 180 157 197 113 130 172 159 162 99 139 158 232 202 222 266 275 260 237 213 202 189 185 189 194 189 179 186 184 184 182 182 181 180 199 192 179 171 162 157 146 137 143 174 170 173 166 145 113 102 84 76 54 29 21 22 19 16 12 9 7
188 185 183 184 181 179 181 186 186 181 180 177 170 173 178 181 182 182 177 174 180 172 181 177 187 179 185 168 161 130 127 96 179 156 61 136 167 199 201 186 213 238 213 227 202 198 194 192 196 192 180 170 178 180 182 183 181 179 198 190 183 173 168 164 158 156 153 163 170 183 181 163 104 92 87 70 51 28 21 18 18 14 9 6 6
186 189 186 183 184 184 183 185 183 182 180 175 178 179 182 182 184 183 181 181 182 181 181 178 178 182 190 178 184 179 179 177 183 189 157 151 107 222 189 200 212 236 251 214 199 196 193 188 199 202 196 168 176 174 182 188 182 184 187 189 185 177 175 170 169 169 173 172 177 189 206 170 144 85 87 65 43 24 15 15 14 11 7 3 4
187 188 190 188 185 187 186 183 183 182 186 183 181 181 177 177 180 185 189 191 182 180 181 179 185 187 193 193 194 187 184 178 178 181 185 189 175 179 189 182 292 236 272 209 212 185 197 196 200 201 202 175 177 180 183 177 191 186 183 188 185 182 182 177 179 181 185 184 185 208 215 196 145 87 65 57 30 13 7 8 10 6 2 360 2
191 188 193 190 186 185 188 189 188 187 184 181 186 179 173 178 185 188 190 189 189 186 186 192 185 188 196 197 192 190 199 183 166 181 197 169 167 151 212 175 187 225 228 141 216 199 198 205 194 202 201 187 169 180 183 181 186 188 177 187 183 188 188 186 186 189 193 195 202 213 223 227 223 49 48 31 21 2 356 360 12 5 358 357 359
186 193 191 188 190 191 188 190 193 190 184 184 182 182 175 180 185 190 195 195 186 191 197 192 191 197 186 189 198 197 201 186 180 173 182 163 182 178 146 205 137 225 359 194 227 168 252 215 202 192 197 191 177 177 183 185 184 187 173 173 187 192 194 193 194 198 201 205 207 220 226 222 240 260 309 355 352 333 319 335 10 3 358 356 0
188 191 187 188 191 188 189 189 193 195 187 183 182 180 180 180 188 194 195 191 191 189 197 191 193 194 192 192 194 196 198 193 183 190 173 185 174 163 148 144 251 61 223 245 248 218 222 224 191 195 196 189 183 180 182 185 181 181 165 172 188 196 199 200 201 204 207 210 207 216 224 231 230 241 252 264 283 290 308 343 1 3 355 355 1
184 187 188 186 188 190 189 191 191 195 194 187 180 179 180 181 186 189 194 190 191 194 197 194 199 195 193 191 184 203 195 192 194 194 187 168 157 157 167 165 163 231 271 246 233 244 212 214 225 205 188 187 191 186 178 170 173 177 162 171 187 200 204 204 206 210 212 215 211 215 224 227 234 237 241 249 260 278 313 339 352 355 353 352 359
186 187 186 188 188 188 190 191 190 193 196 194 187 182 179 183 185 187 192 189 191 198 193 194 199 191 190 188 193 192 195 187 192 196 187 165 172 169 179 174 175 165 192 219 236 219 240 199 194 224 184 179 184 181 168 178 174 168 166 177 188 200 207 206 207 213 214 214 214 221 224 226 230 236 244 248 255 267 314 328 336 343 346 350 353
186 186 186 187 188 187 189 191 191 191 195 196 194 188 180 186 187 190 192 184 192 196 197 195 194 185 189 191 192 195 188 182 195 195 189 183 178 180 184 187 172 182 181 190 238 202 226 209 196 194 182 179 173 177 179 172 175 164 171 180 191 200 208 206 208 213 219 215 218 221 230 231 233 236 241 245 251 274 300 303 313 327 331 344 344
188 186 188 189 188 189 188 190 190 192 192 195 196 194 189 189 187 188 188 186 191 195 195 190 191 182 188 194 194 201 186 193 193 193 194 186 189 178 188 178 190 191 178 180 216 266 188 211 222 190 170 175 172 167 167 169 175 169 173 186 197 203 203 209 209 214 219 218 220 223 228 230 232 238 245 253 259 274 284 284 294 313 316 325 332
193 188 188 191 190 188 190 189 190 191 192 194 193 196 194 198 190 187 186 185 191 193 190 190 184 188 190 196 196 199 192 189 195 195 195 195 190 184 180 183 192 192 176 176 198 239 215 207 202 188 167 162 163 165 171 170 182 177 179 190 201 196 200 210 212 217 218 217 221 223 229 231 226 232 240 248 256 267 267 275 287 295 275 274 313
191 191 192 193 191 191 190 192 191 191 192 191 192 193 196 199 198 193 184 188 192 193 185 188 189 185 193 199 200 201 183 189 198 196 198 198 193 197 185 182 189 186 174 182 196 239 294 248 175 178 165 144 164 177 165 168 171 186 193 203 193 186 197 204 209 221 218 214 219 223 229 236 234 230 233 240 248 258 269 276 280 270 268 266 298
193 194 194 193 193 192 192 193 193 193 193 192 190 192 196 199 199 195 191 192 195 193 186 189 188 187 189 197 203 198 188 196 195 197 196 197 197 199 203 189 198 193 193 174 205 181 204 76 118 92 151 171 161 181 171 169 183 177 192 208 201 194 199 202 207 223 217 212 217 224 229 235 236 233 230 240 243 235 250 264 272 274 268 271 275
196 197 194 193 193 193 195 194 194 196 195 194 192 193 198 198 198 199 195 193 195 194 193 194 189 183 185 194 202 195 187 198 204 205 192 199 196 201 208 198 202 202 190 184 149 177 161 188 165 155 167 177 172 180 190 180 174 178 188 202 196 190 203 201 208 219 210 206 213 223 229 234 234 232 226 228 233 228 243 257 266 270 263 266 270
196 200 193 191 192 194 196 196 197 196 196 197 194 198 200 199 199 200 197 197 198 200 199 196 190 187 190 191 201 194 189 199 204 203 200 194 196 203 205 201 198 195 189 188 184 141 170 141 193 174 184 164 214 173 165 155 160 179 197 194 164 182 195 201 210 215 207 203 211 220 228 234 233 232 225 223 225 224 238 253 262 268 268 263 261
194 194 194 189 192 195 199 199 198 198 198 197 198 201 204 203 202 200 199 199 200 202 201 199 193 192 191 196 195 186 184 196 200 200 196 197 199 195 199 193 193 192 177 181 187 155 144 160 166 212 168 172 124 140 156 149 165 200 204 189 192 197 197 211 216 225 213 198 211 220 227 234 235 235 229 220 218 219 230 246 258 263 264 258 257
191 189 188 189 194 198 201 200 200 201 198 199 201 202 204 205 205 204 202 202 203 202 201 201 197 195 194 195 191 183 183 190 195 194 190 195 189 190 190 189 191 182 183 179 171 168 157 164 157 143 167 172 138 146 182 168 161 179 212 242 276 197 173 213 233 224 203 178 202 225 239 246 248 244 240 221 221 225 229 237 248 257 258 254 253
189 185 184 189 193 197 200 199 201 200 199 200 203 204 206 205 204 203 204 206 205 205 204 200 198 197 195 192 191 188 190 193 188 188 188 192 192 197 188 188 188 179 192 177 170 166 161 149 168 168 165 202 153 158 177 180 174 174 181 205 245 245 174 192 226 230 172 211 238 228 220 224 242 256 247 215 217 226 232 237 245 250 251 246 246
198 189 184 190 191 192 196 199 201 198 199 201 203 205 206 205 203 205 204 205 206 208 207 202 198 197 195 192 192 193 194 194 190 189 183 194 194 199 192 183 184 182 190 170 165 166 160 164 164 168 180 165 150 52 102 122 140 241 212 173 199 213 210 209 207 198 200 186 220 224 236 245 263 262 265 243 218 219 226 237 240 244 244 239 239
204 201 184 180 183 189 193 197 199 198 201 203 202 202 203 205 204 205 205 206 206 207 207 205 202 199 195 194 195 194 196 196 195 190 195 193 182 195 194 184 185 184 180 169 170 164 167 162 162 143 160 167 176 143 152 171 184 193 193 164 200 209 178 179 240 228 184 185 208 216 238 218 242 259 259 273 234 215 224 225 239 243 242 240 234
207 202 188 178 183 188 192 198 199 201 205 206 203 199 199 200 200 203 205 207 206 206 204 203 206 203 198 194 198 196 195 196 198 200 202 201 195 190 179 181 183 182 182 174 175 174 163 169 175 162 171 187 187 179 173 193 177 129 133 164 183 206 108 154 312 267 200 153 159 214 243 218 208 257 269 259 264 212 215 219 230 229 231 231 230
198 194 188 186 184 186 194 196 201 207 208 208 197 195 200 199 196 198 201 206 207 206 204 200 201 200 201 196 194 197 195 197 200 201 203 204 202 196 183 185 182 178 177 180 186 173 170 178 173 171 181 186 198 187 183 168 166 171 175 170 161 144 154 149 201 300 233 165 172 197 261 237 181 229 256 253 249 221 220 226 230 229 229 227 221
190 176 187 189 186 183 192 200 205 209 213 207 190 195 197 198 195 195 199 202 204 207 207 204 203 195 193 194 199 196 196 196 195 201 207 206 202 200 193 190 194 194 183 176 174 175 176 164 171 191 177 190 189 178 183 150 172 166 169 159 162 166 168 168 175 186 231 155 160 164 239 312 170 214 261 262 252 228 224 228 230 230 226 227 218
105 207 202 187 185 189 191 202 212 214 218 203 192 193 196 196 196 192 199 201 201 209 207 205 201 195 190 190 195 202 203 197 191 187 185 196 206 205 199 196 200 199 200 192 177 176 175 171 177 187 191 179 174 198 188 175 159 164 161 172 176 171 171 168 205 212 246 179 144 174 216 259 176 182 241 267 256 246 248 238 235 227 224 223 216
129 110 27 308 246 201 198 203 212 218 221 205 193 192 195 196 195 193 198 198 203 206 206 203 199 194 190 187 189 198 199 190 185 177 173 174 172 171 185 189 195 205 202 202 198 182 174 176 176 188 203 170 184 189 189 155 155 171 168 183 171 163 175 195 201 188 225 166 171 145 326 288 241 178 252 273 275 271 245 271 267 237 227 219 215
173 173 182 182 200 217 214 211 213 219 225 202 191 192 195 195 195 194 198 198 202 206 206 203 198 193 191 190 189 191 187 189 188 176 168 170 168 173 173 184 191 187 185 186 185 180 191 190 183 190 182 188 189 179 171 178 177 176 175 177 179 176 153 96 81 33 258 163 126 114 223 266 297 148 259 271 320 310 272 259 253 231 219 210 212
189 189 186 164 173 191 202 219 227 229 225 193 190 193 193 196 191 197 199 197 201 203 204 203 200 194 190 188 189 191 188 190 189 178 172 159 162 168 178 176 163 145 153 273 259 215 193 186 186 182 178 184 179 174 172 177 167 125 92 69 78 100 130 140 187 297 240 283 185 133 187 271 232 154 264 291 352 310 304 306 246 224 212 204 204
196 197 194 184 182 189 197 204 216 224 226 187 186 192 195 193 186 204 199 199 202 201 203 201 198 194 193 191 190 190 188 194 184 175 171 158 167 174 174 173 170 157 173 26 42 69 157 177 170 169 169 179 179 174 171 169 158 147 124 126 164 152 139 172 222 215 240 256 236 181 160 246 228 168 238 293 243 276 307 306 298 258 248 210 207
209 201 198 201 198 196 195 204 213 222 224 184 183 191 196 192 193 201 201 198 203 201 204 200 196 197 198 193 191 188 188 196 178 176 172 167 170 175 170 165 167 177 198 206 83 49 66 88 103 138 159 170 176 174 171 167 158 154 150 172 179 149 173 177 191 205 255 287 244 167 124 228 153 155 157 310 340 243 307 322 347 33 25 151 206
198 193 199 207 213 213 208 206 207 211 220 183 182 191 193 194 196 204 197 198 200 203 194 199 201 199 203 202 196 190 192 186 174 177 177 177 177 174 177 169 178 189 194 171 152 129 118 105 90 96 76 140 152 157 169 166 167 172 170 162 150 161 173 192 177 123 269 281 256 170 166 253 143 233 134 64 83 281 291 312 341 343 10 50 114